Regional Weather Roundup
Issued by NWS

Home | Current Version | Previous Version | Text Only | Print | Product List | Glossary Off
Versions: 1 2 3 4 5 6 7 8 9 10 11 12 13 14 15 16 17 18 19 20 21 22 23 24 25 26 27 28 29 30 31 32 33 34 35 36 37 38 39 40 41 42 43 44 45 46 47 48 49 50

000
ASUS43 KLSX 291607
RWRMO

WEATHER SUMMARY FOR MISSOURI
NATIONAL WEATHER SERVICE SPRINGFIELD MO
1100 AM CDT SAT AUG 29 2015

NOTE: "FAIR" INDICATES FEW OR NO CLOUDS BELOW 12,000 FEET WITH NO
       SIGNIFICANT WEATHER AND/OR OBSTRUCTIONS TO VISIBILITY.
       CURRENT SKY AND/OR WEATHER CONDITIONS ARE NOT AVAILABLE FOR
       CHILLICOTHE AND FARMINGTON.

MOZ001>031-035>038-043-044-053-054-291700-
...NORTHERN AND WESTERN MISSOURI...

CITY           SKY/WX    TMP DP  RH WIND       PRES   REMARKS
KANSAS CTY INT CLOUDY    69  66  90 N3        30.03R
KANSAS C DTWN  CLOUDY    73  68  84 N5        30.01R
LEE`S SUMMIT   CLOUDY    73  67  81 VRB3      30.02R
ST JOSEPH      CLOUDY    69  66  90 N6        30.03R
CHILLICOTHE      N/A     76  70  82 NE3       30.01R
KIRKSVILLE     CLOUDY    72  65  78 SW5       30.02R

$$
MOZ066>068-077>081-088>096-101>105-291700-
...SOUTHWEST MISSOURI...

CITY           SKY/WX    TMP DP  RH WIND       PRES   REMARKS
SPRINGFIELD    CLOUDY    73  64  73 S12       30.05R
JOPLIN         CLOUDY    76  65  68 SW9       30.02S

$$
MOZ032>034-039>042-045>050-055>058-069>072-291700-
...CENTRAL MISSOURI...

CITY           SKY/WX    TMP DP  RH WIND       PRES   REMARKS
COLUMBIA       CLOUDY    76  65  68 SW10      30.02S
JEFFERSON CITY MOSUNNY   79  63  57 SW10      30.01S
ROLLA          LGT RAIN  73  68  84 S10       30.03S
SEDALIA        CLOUDY    74  64  71 SW8       30.03R
WHITEMAN AFB   CLOUDY    73  67  81 SW7       30.01R
WARRENSBURG    CLOUDY    73  68  83 S3        30.01S
OSAGE BEACH    CLOUDY    79  63  57 SW10      30.03S

$$
MOZ051-052-059>065-291700-
...EAST CENTRAL MISSOURI...

CITY           SKY/WX    TMP DP  RH WIND       PRES   REMARKS
ST LOUIS INTL  CLOUDY    80  64  58 SW9       30.03F
SPIRIT OF STL  CLOUDY    78  67  68 S5        30.02S
ST CHARLES     CLOUDY    76  66  71 SW7       30.01F

$$
MOZ072>076-082>087-097>100-106>115-291700-
...SOUTH CENTRAL AND SOUTHEAST MISSOURI...

CITY           SKY/WX    TMP DP  RH WIND       PRES   REMARKS
CAPE GIRARDEAU PTSUNNY   78  68  71 S9        30.07S
FARMINGTON     CLOUDY    73  64  73 SW7       30.09S
POPLAR BLUFF   PTSUNNY   78  69  73 S6        30.07R
WEST PLAINS    LGT RAIN  66  63  90 S8        30.10F

$$



USA.gov is the U.S. government's official web portal to all federal, state and local government web resources and services.